Starlink 3958

operational
NORAD ID: 52535 Int'l Des: 2022-051 Owner: SPXS Country: US Constellation: starlink
LEOCIRCULAR

About Starlink 3958

Description loading...

Live Position

Loading 3D Globe...

Upcoming Passes

Altitude History

Altitude vs Time

uPlot chart will show altitude changes over time

Two-Line Element Set

1 52535U 22051C 25347.66424052 -.00000092 00000-0 12340-4 0 9996
2 52535 53.2153 155.3031 0001616 83.9220 276.1956 15.08845471198453
Epoch: Dec 13, 2025 • Age: 14 hours

Current Status

Altitude 539.7 km
Velocity 7.60 km/s
Sub-Earth Point 20.43°N, 9.94°W
Launch Date May 13, 2022
Age 3.5 years
Type internet

Technical Details

Classification Payload
Mass 297.00 kg
Dry Mass 275.00 kg
Total Mass 297.00 kg
Length 0.20 m
Diameter 2.80 m
Span 9.00 m
Shape Box + pan
Manufacturer SPXS
Bus Type Starlink
Phase Status In Orbit
Owner/State SPXS/US

Large Constellations

Loading constellations...